Torna al catalogo

YAOGAN 26

AttivoMilitareSSO
NORAD 40362·PAYLOAD·🇨🇳 China

Lanciato Dec 27, 2014 da Taiyuan Satellite Launch Center

Loading…

Prossimi Passaggi (prossime 24 ore)

TLE

AggiornatoSource: Space-Track

Epoca: Sep 14, 2026, 14:27 UTC

1 40362U 14088A   26257.60218062  .00016877  00000-0  29471-3 0  9998
2 40362  97.0695 255.9558 0005906  82.5239 277.6684 15.50725591651542

Traccia YAOGAN 26 in tempo reale con AllMySat

Download on the App Store